Showing default

COSMOS 2592, 65268

Orbit data source: Space-Track

COSMOS 2592, 65268 is a payload satellite owned by MO RF (CIS) in SSO that was launched on Thu, 21 Aug 2025 UTC via an ANGARA-1.2 launch vehicle from the Plesetsk Missile And Space Complex (PKMTR). Payload-class satellites include a variety of spacecraft equipped with specific instruments for various scientific and technological missions. These include communications satellites like Starlink; space stations such as the ISS; scientific satellites like the Hubble; Earth observation satellites from companies like Planet Labs, Umbra, and HawkEye 360; GPS; miniature CubeSats for education and research; and military/defense satellites.

Not visible in the next 10 days
Identifier
65268, 2025-182B
Orbit
SSO
Country
Flag of CISCIS
Related business
Manufacturer
VNIIEMI?
Mission
Operational Defense Imaging
Bus & Motor
OO-MKA, Unknown motor
Mass
520 kg wet, ~500 kg dry
Launch date (UTC)
2025-08-21 (9 months ago)
Launch vehicle
ANGARA-1.2
Launch site
Plesetsk Missile And Space Complex (PKMTR)
Object type
Payload
Rocket body
Debris
Shape & HBR
Cyl + 2 Pan, 1.1 m
Radar Cross Section
3.727 m², Large (>1 m²)

Expand to show TLE details & history
Last TLE update: 8 hours ago

TLE from 8 hours ago
0 COSMOS 2592
1 65268U 25182B   26133.27004315  .00018063  19796-5  44851-4 0  9993
2 65268  96.5853  65.1243 0000475 311.9661  48.1577 15.96426662 42127
Epoch: 2026-05-13T06:28Z
TLE epoch observation values (Epoch: 2026-05-13T06:28:51.728Z)
Latitude
Longitude
96.87629°
Altitude
287.347 km
Speed
7.735 km/s
True Right ascension
04h 20m 29s
True Declination
0° 00' 00"
Sunlit
Object was in daylight at epoch
Visualization orbit readout
Latitude
Unknown
Longitude
Unknown
Altitude
Unknown
Speed
Unknown
Apparent Right ascension
Unknown
Apparent Declination
Unknown
Sunlit
N/A
Visualization observer readout
Local Sidereal Time
23:17:41
Azimuth
Unknown
Elevation
Unknown
Doppler factor
Unknown
Orbital elements
Apogee altitude
281.489 km
Perigee altitude
280.856 km
Semi-major axis
6,659.31 km
Eccentricity
0.00005
Inclination
96.5853°
RAAN
65.1243°
Arg. of periapsis
311.9661°
True anomaly
48.16176°
Mean anomaly
48.1577°
Eccentric anomaly
48.15973°
Mean motion
3.99392 °/min
Orbital period
90.14 mins
BSTAR
0.000044851
Loading maneuver chart data...
Computing Atmospheric mass density...
Loading historical data...
Loading historical data...
Loading historical data...
Loading historical data...
Loading historical data...
Loading historical data...
Loading historical data...
Other satellites on launch #182 in the year 2025 (2025-08-21 UTC)

Documentation

Showing up to 5 results
|